�N����,����,�~����,�C��,���x,�C��,����,���ϕ���,�ő�u�ԕ���,�ő厞����,���˗�,�I�_���x,�n�����x,�ő啗���N��,DTYPE
"22/05/22","00:10",0.0,15.7,87.7,1002.2,304.8,1.6,2.1,319.3,0.00,13.7,17.7,"00:06:24",1
"22/05/22","00:20",0.0,15.6,87.9,1002.6,300.8,1.5,2.0,314.4,0.00,13.6,17.5,"00:17:44",1
"22/05/22","00:30",0.0,15.6,88.1,1002.9,315.2,1.3,2.1,319.3,0.00,13.7,17.5,"00:22:08",1
"22/05/22","00:40",0.0,15.7,88.4,1002.4,298.9,1.6,2.7,311.7,0.00,13.8,17.5,"00:38:40",1
"22/05/22","00:50",0.0,15.8,88.4,1002.4,292.4,1.6,2.7,309.2,0.00,13.9,17.3,"00:43:44",1
"22/05/22","01:00",0.0,16.0,88.3,1002.4,279.6,1.3,1.8,278.4,0.00,14.1,17.5,"00:56:32",1
"22/05/22","01:10",0.0,16.1,88.1,1002.4,282.4,1.3,1.9,309.5,0.00,14.2,17.4,"01:08:48",1
"22/05/22","01:20",0.0,16.1,87.9,1002.2,302.8,1.6,2.2,334.0,0.00,14.1,17.4,"01:14:24",1
"22/05/22","01:30",0.0,16.2,87.5,1002.4,312.7,2.0,3.7,318.7,0.00,14.2,17.5,"01:27:52",1
"22/05/22","01:40",0.0,16.3,87.1,1001.9,321.2,2.1,3.1,319.6,0.00,14.2,17.4,"01:33:20",1
"22/05/22","01:50",0.0,16.4,86.7,1002.2,309.2,2.1,2.7,323.2,0.00,14.2,17.2,"01:40:16",1
"22/05/22","02:00",0.0,16.5,86.2,1002.2,311.9,2.1,3.4,316.0,0.00,14.2,17.3,"01:58:24",1
"22/05/22","02:10",0.0,16.6,85.9,1001.9,323.4,2.2,2.9,324.5,0.00,14.3,17.2,"02:00:40",1
"22/05/22","02:20",0.0,16.6,85.7,1002.2,322.3,2.5,3.4,330.0,0.00,14.2,17.4,"02:19:28",1
"22/05/22","02:30",0.0,16.5,85.5,1001.7,314.3,2.6,3.6,324.1,0.00,14.1,17.2,"02:24:16",1
"22/05/22","02:40",0.0,16.5,85.6,1001.9,321.0,2.5,3.6,328.2,0.00,14.1,17.3,"02:35:44",1
"22/05/22","02:50",0.0,16.4,85.8,1001.7,308.2,2.0,3.3,321.5,0.00,14.1,17.1,"02:48:40",1
"22/05/22","03:00",0.0,16.3,86.1,1001.7,326.0,2.7,4.0,322.8,0.00,14.0,17.3,"02:54:40",1
"22/05/22","03:10",0.0,16.1,86.4,1001.7,325.8,1.8,2.5,335.0,0.00,13.9,17.3,"03:08:24",1
"22/05/22","03:20",0.0,15.9,86.9,1001.5,323.3,1.8,2.5,335.0,0.00,13.8,17.4,"03:11:04",1
"22/05/22","03:30",0.0,15.8,87.3,1001.5,324.2,2.1,2.6,336.2,0.00,13.7,17.2,"03:29:20",1
"22/05/22","03:40",0.0,15.7,87.6,1001.7,324.1,2.0,2.7,314.4,0.00,13.7,17.1,"03:32:08",1
"22/05/22","03:50",0.0,15.5,87.9,1001.5,312.2,1.7,2.6,316.2,0.00,13.5,17.2,"03:47:12",1
"22/05/22","04:00",0.0,15.5,88.4,1001.5,300.2,1.8,2.9,312.9,0.00,13.6,17.3,"03:53:12",1
"22/05/22","04:10",0.0,15.3,88.6,1001.5,306.4,2.0,3.1,306.1,0.00,13.5,17.2,"04:03:20",1
"22/05/22","04:20",0.0,15.0,88.9,1001.7,317.3,1.8,2.8,325.2,0.00,13.2,17.2,"04:17:12",1
"22/05/22","04:30",0.0,14.9,89.2,1001.9,324.4,2.3,3.4,330.2,0.00,13.2,17.1,"04:28:16",1
"22/05/22","04:40",0.0,14.8,89.5,1001.7,328.9,2.3,3.4,333.9,0.00,13.1,17.0,"04:30:40",1
"22/05/22","04:50",0.0,14.8,89.8,1001.9,325.0,2.6,3.6,321.0,0.00,13.2,17.1,"04:48:56",1
"22/05/22","05:00",0.0,14.8,90.1,1001.5,328.8,2.2,3.3,324.7,0.00,13.2,17.1,"04:50:16",1
"22/05/22","05:10",0.0,14.9,90.2,1001.9,335.4,2.7,4.5,337.8,0.00,13.3,17.0,"05:00:08",1
"22/05/22","05:20",0.0,14.7,90.5,1001.9,338.0,2.6,3.5,341.5,0.00,13.2,17.0,"05:19:28",1
"22/05/22","05:30",0.0,14.5,90.7,1001.9,334.4,2.6,4.0,338.8,0.00,13.0,16.9,"05:29:36",1
"22/05/22","05:40",0.0,14.5,90.9,1001.7,330.5,2.3,3.5,336.5,0.00,13.1,17.1,"05:36:08",1
"22/05/22","05:50",0.0,14.6,91.2,1001.9,325.8,2.3,2.9,338.4,0.00,13.2,17.1,"05:42:40",1
"22/05/22","06:00",0.0,14.9,91.4,1002.4,320.1,2.3,3.5,328.7,0.00,13.6,17.1,"05:59:52",1
"22/05/22","06:10",0.0,14.7,91.5,1001.9,329.5,2.3,3.4,325.2,0.01,13.4,16.8,"06:00:32",1
"22/05/22","06:20",0.0,14.9,91.7,1001.9,330.8,2.2,3.1,337.5,0.02,13.6,17.0,"06:10:48",1
"22/05/22","06:30",0.0,15.2,91.8,1002.2,326.3,2.7,4.9,331.3,0.03,13.9,16.9,"06:25:52",1
"22/05/22","06:40",0.0,15.3,91.7,1002.6,306.1,2.7,3.9,318.6,0.04,14.0,16.9,"06:38:56",1
"22/05/22","06:50",0.0,15.5,91.4,1002.6,313.1,2.2,3.6,322.4,0.06,14.1,16.9,"06:40:08",1
"22/05/22","07:00",0.0,16.0,91.0,1002.4,315.9,2.1,3.5,326.8,0.08,14.6,17.1,"06:59:20",1
"22/05/22","07:10",0.0,16.5,90.6,1002.9,336.8,2.3,4.1,340.1,0.10,15.0,16.9,"07:01:28",1
"22/05/22","07:20",0.0,17.1,89.5,1002.9,334.8,2.0,3.3,341.8,0.12,15.4,16.8,"07:11:04",1
"22/05/22","07:30",0.0,17.8,88.2,1002.9,340.3,1.7,3.6,337.3,0.14,15.9,16.8,"07:25:12",1
"22/05/22","07:40",0.0,18.6,86.0,1002.9,359.2,1.0,2.4,359.9,0.17,16.3,17.0,"07:36:24",1
"22/05/22","07:50",0.0,19.4,83.3,1002.6,49.7,0.6,1.2,8.1,0.19,16.5,16.9,"07:40:24",1
"22/05/22","08:00",0.0,20.0,79.5,1002.4,351.4,0.7,1.9,345.9,0.22,16.4,16.8,"07:51:52",1
"22/05/22","08:10",0.0,20.6,75.9,1002.4,23.2,0.6,1.6,13.9,0.24,16.2,16.8,"08:07:28",1
"22/05/22","08:20",0.0,21.0,74.4,1002.4,161.5,0.5,1.6,235.9,0.26,16.3,16.8,"08:11:12",1
"22/05/22","08:30",0.0,21.4,73.1,1002.4,116.3,0.6,1.4,93.7,0.29,16.4,16.9,"08:26:48",1
"22/05/22","08:40",0.0,21.8,71.3,1001.7,94.4,0.8,2.0,17.9,0.32,16.4,17.0,"08:35:12",1
"22/05/22","08:50",0.0,21.3,69.8,1001.9,185.6,1.1,2.5,196.7,0.34,15.6,16.9,"08:44:24",1
"22/05/22","09:00",0.0,22.0,69.9,1001.5,119.1,0.7,1.7,6.9,0.36,16.3,16.9,"08:59:36",1
"22/05/22","09:10",0.0,22.6,66.3,1001.0,71.3,0.7,2.1,124.7,0.38,16.0,17.0,"09:04:48",1
"22/05/22","09:20",0.0,23.1,62.4,1001.0,59.5,1.0,3.9,196.6,0.41,15.6,17.1,"09:19:52",1
"22/05/22","09:30",0.0,22.9,64.5,1000.8,166.5,1.1,3.3,165.9,0.43,15.9,17.1,"09:22:00",1
"22/05/22","09:40",0.0,23.7,62.4,1000.5,166.2,0.8,2.0,235.5,0.45,16.1,16.8,"09:34:24",1
"22/05/22","09:50",0.0,23.9,62.2,1000.5,162.1,1.0,2.5,231.3,0.46,16.3,17.2,"09:43:12",1
"22/05/22","10:00",0.0,23.7,57.9,1000.3,1.7,1.6,3.1,352.9,0.49,15.0,17.1,"09:54:00",1
"22/05/22","10:10",0.0,23.6,57.7,1000.0,263.0,1.3,3.6,239.6,0.50,14.8,17.2,"10:08:00",1
"22/05/22","10:20",0.0,24.3,57.8,1000.0,171.7,1.3,3.3,118.1,0.52,15.5,17.4,"10:11:36",1
"22/05/22","10:30",0.0,24.6,57.3,999.6,214.9,1.8,4.5,235.2,0.53,15.6,17.2,"10:20:56",1
"22/05/22","10:40",0.0,24.7,54.6,999.3,254.3,1.5,4.3,249.3,0.53,15.0,17.2,"10:30:40",1
"22/05/22","10:50",0.0,25.1,55.9,999.6,257.0,1.7,4.3,251.4,0.55,15.7,17.5,"10:42:48",1
"22/05/22","11:00",0.0,25.1,52.1,999.1,249.3,1.6,4.8,241.5,0.58,14.6,17.5,"10:50:16",1
"22/05/22","11:10",0.0,25.2,51.2,998.4,279.4,1.6,3.9,346.5,0.60,14.5,17.5,"11:07:44",1
"22/05/22","11:20",0.0,25.9,49.7,998.6,288.4,1.5,4.4,317.0,0.59,14.6,17.5,"11:13:12",1
"22/05/22","11:30",0.0,25.2,51.0,998.9,257.6,1.5,3.1,207.6,0.27,14.4,17.8,"11:26:24",1
"22/05/22","11:40",0.0,25.6,47.5,999.1,343.3,2.6,5.2,317.6,0.63,13.7,17.7,"11:39:12",1
"22/05/22","11:50",0.0,26.0,48.4,999.1,311.1,1.8,3.7,334.6,0.52,14.3,17.8,"11:47:20",1
"22/05/22","12:00",0.0,25.4,50.5,999.1,315.0,1.7,4.1,314.7,0.26,14.4,17.9,"11:54:08",1
"22/05/22","12:10",0.0,26.1,49.6,999.1,323.2,2.2,4.7,333.0,0.49,14.8,18.0,"12:03:36",1
"22/05/22","12:20",0.0,26.0,48.8,999.3,332.0,2.5,5.0,326.6,0.49,14.4,18.0,"12:17:28",1
"22/05/22","12:30",0.0,26.6,46.7,998.9,333.9,1.6,3.1,348.8,0.54,14.3,17.9,"12:20:24",1
"22/05/22","12:40",0.0,26.5,45.9,997.9,258.6,2.5,4.8,222.9,0.63,14.0,18.1,"12:37:28",1
"22/05/22","12:50",0.0,26.9,46.0,998.4,268.3,2.0,4.9,241.2,0.55,14.4,18.1,"12:43:36",1
"22/05/22","13:00",0.0,27.9,44.4,998.6,283.9,1.1,2.7,333.3,0.65,14.7,18.0,"12:55:36",1
"22/05/22","13:10",0.0,27.4,43.4,998.4,263.5,2.1,5.0,2.9,0.50,13.9,18.2,"13:07:44",1
"22/05/22","13:20",0.0,27.5,43.6,998.9,267.5,2.0,4.4,232.6,0.57,14.1,18.2,"13:11:44",1
"22/05/22","13:30",0.0,28.0,42.0,998.4,244.0,1.6,4.0,223.0,0.64,13.9,18.3,"13:26:00",1
"22/05/22","13:40",0.0,28.1,40.1,998.6,268.8,2.1,4.3,223.8,0.62,13.3,18.5,"13:33:44",1
"22/05/22","13:50",0.0,27.7,42.3,998.6,243.6,2.5,6.6,199.3,0.52,13.8,18.4,"13:47:12",1
"22/05/22","14:00",0.0,28.1,39.4,998.6,270.1,2.1,5.1,241.2,0.56,13.1,18.7,"13:58:40",1
"22/05/22","14:10",0.0,28.3,39.1,998.2,264.8,2.6,5.6,235.1,0.59,13.1,18.7,"14:00:08",1
"22/05/22","14:20",0.0,28.7,37.8,998.2,239.0,2.6,6.5,238.1,0.58,12.9,18.7,"14:11:12",1
"22/05/22","14:30",0.0,28.6,37.3,998.4,298.0,2.3,4.7,250.4,0.54,12.7,18.8,"14:24:08",1
"22/05/22","14:40",0.0,28.9,36.0,998.2,328.5,2.2,4.8,339.8,0.53,12.4,18.6,"14:31:20",1
"22/05/22","14:50",0.0,29.1,35.6,998.2,343.8,2.0,4.8,359.9,0.44,12.4,19.0,"14:42:00",1
"22/05/22","15:00",0.0,29.1,34.9,998.2,304.3,2.8,5.8,319.8,0.49,12.1,18.8,"14:57:04",1
"22/05/22","15:10",0.0,29.1,34.1,997.9,311.4,2.0,4.7,353.7,0.46,11.7,19.1,"15:09:52",1
"22/05/22","15:20",0.0,28.7,32.5,997.9,306.6,2.6,5.2,332.4,0.44,10.7,19.1,"15:10:32",1
"22/05/22","15:30",0.0,28.9,33.3,997.7,314.4,2.6,5.2,329.1,0.43,11.2,19.1,"15:23:52",1
"22/05/22","15:40",0.0,29.2,32.9,997.7,19.8,2.0,4.5,321.4,0.40,11.3,19.1,"15:39:20",1
"22/05/22","15:50",0.0,29.2,33.1,997.7,8.5,1.8,4.5,352.1,0.37,11.4,19.2,"15:42:16",1
"22/05/22","16:00",0.0,29.6,34.7,997.9,47.8,1.0,4.0,332.7,0.30,12.4,19.3,"15:55:36",1
"22/05/22","16:10",0.0,29.2,31.8,997.4,4.0,2.1,5.0,355.1,0.33,10.8,19.5,"16:05:04",1
"22/05/22","16:20",0.0,28.9,32.5,997.4,355.2,3.0,5.9,353.7,0.30,10.8,19.2,"16:19:52",1
"22/05/22","16:30",0.0,28.4,32.4,997.4,334.6,3.0,5.5,332.2,0.20,10.4,19.3,"16:24:32",1
"22/05/22","16:40",0.0,28.8,32.5,997.2,312.5,2.1,5.2,326.5,0.25,10.7,19.4,"16:39:04",1
"22/05/22","16:50",0.0,28.6,33.8,997.0,324.0,2.7,5.2,340.3,0.23,11.2,19.6,"16:44:16",1
"22/05/22","17:00",0.0,28.3,35.7,997.2,317.7,2.3,4.4,347.9,0.15,11.7,19.4,"16:57:28",1
"22/05/22","17:10",0.0,28.4,35.2,997.0,355.7,2.6,5.1,355.3,0.17,11.6,19.6,"17:09:28",1
"22/05/22","17:20",0.0,28.5,38.5,997.0,282.5,1.8,3.6,326.4,0.17,13.1,19.7,"17:11:44",1
"22/05/22","17:30",0.0,28.3,39.1,997.0,276.6,1.6,3.6,265.8,0.14,13.1,19.6,"17:22:40",1
"22/05/22","17:40",0.0,27.8,40.8,997.2,267.2,1.8,3.5,244.3,0.05,13.3,19.6,"17:31:44",1
"22/05/22","17:50",0.0,26.8,42.2,997.0,272.9,2.2,4.0,246.4,0.04,12.9,19.7,"17:46:32",1
"22/05/22","18:00",0.0,26.4,45.1,997.4,327.5,2.7,4.4,327.0,0.04,13.6,19.4,"17:54:48",1
"22/05/22","18:10",0.0,26.2,45.7,997.7,282.4,1.7,3.4,323.9,0.04,13.6,19.7,"18:07:44",1
"22/05/22","18:20",0.0,25.8,46.3,997.9,285.7,2.0,4.4,316.2,0.03,13.5,19.5,"18:18:00",1
"22/05/22","18:30",0.0,25.6,47.8,998.2,300.0,2.0,4.8,335.3,0.02,13.8,19.7,"18:29:52",1
"22/05/22","18:40",0.0,25.4,49.1,998.4,305.4,1.6,2.9,337.7,0.01,14.0,19.7,"18:35:04",1
"22/05/22","18:50",0.0,25.3,49.2,998.4,301.3,1.7,3.9,274.2,0.00,13.9,19.7,"18:44:40",1
"22/05/22","19:00",0.0,25.0,49.9,998.9,315.1,2.0,4.0,333.1,0.00,13.9,19.6,"18:50:02",1
"22/05/22","19:10",0.0,24.8,49.6,998.9,301.9,2.0,3.4,322.7,0.00,13.6,19.6,"19:02:56",1
"22/05/22","19:20",0.0,24.5,51.0,998.9,313.9,2.0,3.9,341.2,0.00,13.7,19.7,"19:10:40",1
"22/05/22","19:30",0.0,23.9,52.9,999.3,329.8,2.2,4.0,322.3,0.00,13.8,19.5,"19:22:24",1
"22/05/22","19:40",0.0,23.5,54.6,999.3,333.4,2.5,3.7,341.4,0.00,13.9,19.7,"19:35:12",1
"22/05/22","19:50",0.0,23.4,55.1,999.6,331.4,2.7,4.4,337.1,0.00,13.9,19.6,"19:41:52",1
"22/05/22","20:00",0.0,23.1,56.2,999.6,334.0,3.0,4.2,341.3,0.00,13.9,19.7,"19:50:24",1
"22/05/22","20:10",0.0,23.0,57.4,999.6,331.9,2.8,4.3,314.5,0.00,14.2,19.7,"20:01:52",1
"22/05/22","20:20",0.0,22.9,57.4,999.8,335.8,3.2,4.7,337.8,0.00,14.1,19.6,"20:12:40",1
"22/05/22","20:30",0.0,23.1,56.6,1000.0,327.9,3.0,4.3,343.3,0.00,14.1,19.3,"20:27:36",1
"22/05/22","20:40",0.0,22.9,56.9,999.8,330.3,2.6,4.3,337.5,0.00,14.0,19.6,"20:34:24",1
"22/05/22","20:50",0.0,22.7,57.9,999.6,334.3,2.7,3.9,333.5,0.00,14.0,19.5,"20:48:00",1
"22/05/22","21:00",0.0,22.4,59.4,999.8,320.6,2.1,3.4,337.4,0.00,14.1,19.4,"20:54:08",1
"22/05/22","21:10",0.0,21.8,61.4,1000.5,340.6,1.7,2.9,335.3,0.00,14.1,19.4,"21:03:04",1
"22/05/22","21:20",0.0,21.4,63.1,1000.3,349.5,0.7,1.6,342.7,0.00,14.1,19.3,"21:10:56",1
"22/05/22","21:30",0.0,20.9,64.3,1000.5,300.6,0.7,1.1,303.3,0.00,14.0,19.2,"21:28:00",1
"22/05/22","21:40",0.0,20.6,65.8,1000.8,326.6,0.6,1.3,307.3,0.00,14.0,19.3,"21:39:20",1
"22/05/22","21:50",0.0,20.6,66.8,1000.8,335.4,0.8,1.4,336.6,0.00,14.3,19.2,"21:46:48",1
"22/05/22","22:00",0.0,20.6,67.5,1001.0,327.2,1.1,2.0,344.5,0.00,14.4,19.1,"21:56:16",1
"22/05/22","22:10",0.0,20.2,68.3,1001.0,304.6,1.0,1.6,265.4,0.00,14.2,19.1,"22:08:00",1
"22/05/22","22:20",0.0,20.3,69.4,1000.8,338.1,1.8,3.2,348.1,0.00,14.6,19.1,"22:13:36",1
"22/05/22","22:30",0.0,19.9,70.4,1001.0,274.3,1.2,1.7,261.1,0.00,14.4,19.1,"22:25:12",1
"22/05/22","22:40",0.0,19.9,71.2,1000.5,329.9,0.7,2.8,319.0,0.00,14.6,19.1,"22:30:02",1
"22/05/22","22:50",0.0,20.3,71.0,1002.2,330.5,3.1,5.1,345.8,0.00,14.9,19.0,"22:48:40",1
"22/05/22","23:00",3.6,19.8,73.5,1002.2,348.6,3.4,8.3,348.9,0.00,15.0,18.5,"22:53:12",1
"22/05/22","23:10",1.0,18.7,79.2,1001.9,307.2,1.8,2.6,323.4,0.00,15.1,18.7,"23:02:24",1
"22/05/22","23:20",0.0,18.1,82.7,1002.6,299.9,1.7,3.3,316.1,0.00,15.2,18.6,"23:14:32",1
"22/05/22","23:30",0.0,17.8,84.6,1002.4,331.3,1.0,2.4,332.6,0.00,15.2,18.8,"23:20:40",1
"22/05/22","23:40",0.0,17.6,85.9,1002.6,283.1,0.8,1.4,291.3,0.00,15.3,18.9,"23:39:20",1
"22/05/22","23:50",0.2,17.9,87.2,1002.9,322.4,2.1,3.2,319.6,0.00,15.8,18.8,"23:44:56",1
"22/05/22","24:00",0.0,17.6,88.1,1002.9,274.7,1.2,1.9,296.2,0.00,15.6,18.7,"23:50:08",1
